When you browse on this site, cookies collect data to enhance your experience and personalize the content and advertising you see.
Visit our Privacy Policy to learn more. By continuing to use the site, you agree to this use of cookies and data.
  • In Belgien
  • Länderverzeichnis
  • Für 7 Tage
  • Wassertemperatur
  • Satellitenkarten
  • Wetterkarte
  • Widgets
  • user-avatar
    Anmelden

    Stündliche Wetter Tarnawatka

    Heute, 25 Mai, Samstag

    Zeit Temperatur Niederschläge Wind Luftdruck Luftfeuchtigkeit
    00:00 +12°C° 0 mm 3 m/S 733 mmHg 94%
    01:00 +12°C° 0 mm 3 m/S 733 mmHg 95%
    02:00 +12°C° 0 mm 2 m/S 733 mmHg 96%
    03:00 +12°C° 0 mm 2 m/S 733 mmHg 96%
    04:00 +12°C° 0 mm 2 m/S 733 mmHg 96%
    05:00 +10°C° 0 mm 2 m/S 733 mmHg 97%
    06:00 +12°C° 0 mm 3 m/S 733 mmHg 92%
    07:00 +14°C° 0 mm 3 m/S 733 mmHg 88%
    08:00 +15°C° 0 mm 4 m/S 733 mmHg 84%
    09:00 +17°C° 0.1 mm 4 m/S 733 mmHg 80%
    10:00 +18°C° 0.1 mm 4 m/S 733 mmHg 76%
    11:00 +19°C° 0.1 mm 5 m/S 733 mmHg 72%
    12:00 +20°C° 0.5 mm 5 m/S 733 mmHg 70%
    13:00 +20°C° 0.5 mm 5 m/S 733 mmHg 68%
    14:00 +21°C° 0.5 mm 5 m/S 733 mmHg 66%
    15:00 +21°C° 0 mm 4 m/S 733 mmHg 65%
    16:00 +21°C° 0 mm 4 m/S 733 mmHg 63%
    17:00 +21°C° 0 mm 4 m/S 733 mmHg 62%
    18:00 +19°C° 0 mm 3 m/S 733 mmHg 66%
    19:00 +18°C° 0 mm 2 m/S 733 mmHg 71%
    20:00 +16°C° 0 mm 1 m/S 733 mmHg 76%
    21:00 +15°C° 0 mm 1 m/S 733 mmHg 79%
    22:00 +15°C° 0 mm 2 m/S 734 mmHg 83%
    23:00 +14°C° 0 mm 2 m/S 734 mmHg 87%

    Morgen, 26 Mai, Sonntag

    Zeit Temperatur Niederschläge Wind Luftdruck Luftfeuchtigkeit
    00:00 +13°C° 0 mm 2 m/S 734 mmHg 89%
    01:00 +13°C° 0 mm 2 m/S 734 mmHg 91%
    02:00 +12°C° 0 mm 2 m/S 734 mmHg 93%
    03:00 +12°C° 0 mm 2 m/S 734 mmHg 93%
    04:00 +12°C° 0 mm 2 m/S 734 mmHg 93%
    05:00 +12°C° 0 mm 2 m/S 734 mmHg 93%
    06:00 +13°C° 0 mm 2 m/S 735 mmHg 88%
    07:00 +15°C° 0 mm 2 m/S 735 mmHg 83%
    08:00 +17°C° 0 mm 2 m/S 735 mmHg 78%
    09:00 +18°C° 0.1 mm 2 m/S 735 mmHg 75%
    10:00 +19°C° 0.1 mm 3 m/S 735 mmHg 71%
    11:00 +20°C° 0.1 mm 3 m/S 735 mmHg 68%
    12:00 +20°C° 0.6 mm 3 m/S 735 mmHg 68%
    13:00 +21°C° 0.6 mm 4 m/S 735 mmHg 69%
    14:00 +21°C° 0.6 mm 4 m/S 735 mmHg 70%
    15:00 +21°C° 0.5 mm 4 m/S 734 mmHg 71%
    16:00 +21°C° 0.5 mm 4 m/S 734 mmHg 72%
    17:00 +21°C° 0.5 mm 4 m/S 734 mmHg 72%
    18:00 +20°C° 0.6 mm 3 m/S 734 mmHg 78%
    19:00 +18°C° 0.6 mm 3 m/S 734 mmHg 83%
    20:00 +17°C° 0.6 mm 2 m/S 734 mmHg 89%
    21:00 +16°C° 0 mm 2 m/S 734 mmHg 90%
    22:00 +15°C° 0 mm 2 m/S 734 mmHg 91%
    23:00 +15°C° 0 mm 2 m/S 734 mmHg 92%

    übermorgen, 27 Mai, Montag

    Zeit Temperatur Niederschläge Wind Luftdruck Luftfeuchtigkeit
    00:00 +14°C° 0 mm 2 m/S 734 mmHg 92%
    01:00 +14°C° 0 mm 2 m/S 734 mmHg 93%
    02:00 +14°C° 0 mm 2 m/S 734 mmHg 93%
    03:00 +14°C° 0 mm 2 m/S 734 mmHg 93%
    04:00 +13°C° 0 mm 2 m/S 734 mmHg 94%
    05:00 +13°C° 0 mm 1 m/S 734 mmHg 94%
    06:00 +15°C° 0 mm 2 m/S 734 mmHg 90%
    07:00 +17°C° 0 mm 2 m/S 735 mmHg 87%
    08:00 +18°C° 0 mm 2 m/S 735 mmHg 83%
    09:00 +20°C° 0.4 mm 3 m/S 735 mmHg 79%
    10:00 +21°C° 0.4 mm 3 m/S 735 mmHg 75%
    11:00 +22°C° 0.4 mm 4 m/S 735 mmHg 71%
    12:00 +23°C° 0.4 mm 4 m/S 735 mmHg 69%
    13:00 +23°C° 0.4 mm 4 m/S 734 mmHg 67%
    14:00 +25°C° 0.4 mm 5 m/S 734 mmHg 65%
    15:00 +23°C° 0.4 mm 4 m/S 734 mmHg 69%
    16:00 +24°C° 0.4 mm 3 m/S 734 mmHg 73%
    17:00 +22°C° 0.4 mm 3 m/S 734 mmHg 76%
    18:00 +21°C° 0 mm 2 m/S 734 mmHg 78%
    19:00 +20°C° 0 mm 2 m/S 733 mmHg 80%
    20:00 +20°C° 0 mm 1 m/S 733 mmHg 82%
    21:00 +20°C° 0.1 mm 1 m/S 733 mmHg 83%
    22:00 +19°C° 0.1 mm 1 m/S 733 mmHg 85%
    23:00 +18°C° 0.1 mm 1 m/S 733 mmHg 86%

    28 Mai, Dienstag

    Zeit Temperatur Niederschläge Wind Luftdruck Luftfeuchtigkeit
    00:00 +18°C° 0 mm 1 m/S 733 mmHg 86%
    01:00 +17°C° 0 mm 2 m/S 733 mmHg 87%
    02:00 +17°C° 0 mm 2 m/S 732 mmHg 87%
    03:00 +17°C° 0.4 mm 2 m/S 732 mmHg 89%
    04:00 +17°C° 0.4 mm 2 m/S 732 mmHg 92%
    05:00 +17°C° 0.4 mm 3 m/S 732 mmHg 94%
    06:00 +17°C° 1 mm 3 m/S 732 mmHg 94%
    07:00 +17°C° 1 mm 3 m/S 731 mmHg 94%
    08:00 +18°C° 1 mm 3 m/S 731 mmHg 94%
    09:00 +20°C° 0.6 mm 4 m/S 731 mmHg 87%
    10:00 +21°C° 0.6 mm 5 m/S 731 mmHg 81%
    11:00 +23°C° 0.6 mm 5 m/S 731 mmHg 75%
    12:00 +25°C° 0.7 mm 5 m/S 731 mmHg 73%
    13:00 +25°C° 0.7 mm 5 m/S 730 mmHg 71%
    14:00 +26°C° 0.7 mm 4 m/S 730 mmHg 69%
    15:00 +26°C° 0.4 mm 3 m/S 730 mmHg 71%
    16:00 +26°C° 0.4 mm 3 m/S 730 mmHg 72%
    17:00 +26°C° 0.4 mm 2 m/S 729 mmHg 73%
    18:00 +24°C° 1.4 mm 2 m/S 729 mmHg 76%
    19:00 +23°C° 1.4 mm 2 m/S 729 mmHg 79%
    20:00 +20°C° 1.4 mm 2 m/S 729 mmHg 82%
    21:00 +20°C° 0.2 mm 2 m/S 729 mmHg 85%
    22:00 +19°C° 0.2 mm 2 m/S 729 mmHg 87%
    23:00 +18°C° 0.2 mm 2 m/S 729 mmHg 90%

    29 Mai, Mittwoch

    Zeit Temperatur Niederschläge Wind Luftdruck Luftfeuchtigkeit
    00:00 +17°C° 0 mm 2 m/S 729 mmHg 90%
    01:00 +17°C° 0 mm 2 m/S 729 mmHg 89%
    02:00 +16°C° 0 mm 2 m/S 729 mmHg 89%
    03:00 +16°C° 0 mm 2 m/S 729 mmHg 90%
    04:00 +16°C° 0 mm 2 m/S 729 mmHg 92%
    05:00 +15°C° 0 mm 2 m/S 729 mmHg 93%
    06:00 +17°C° 0 mm 3 m/S 730 mmHg 91%
    07:00 +18°C° 0 mm 3 m/S 730 mmHg 89%
    08:00 +19°C° 0 mm 4 m/S 730 mmHg 87%
    09:00 +20°C° 0.1 mm 4 m/S 731 mmHg 83%
    10:00 +21°C° 0.1 mm 4 m/S 731 mmHg 78%
    11:00 +22°C° 0.1 mm 4 m/S 731 mmHg 74%
    12:00 +22°C° 0.9 mm 4 m/S 732 mmHg 76%
    13:00 +21°C° 0.9 mm 3 m/S 732 mmHg 78%
    14:00 +21°C° 0.9 mm 3 m/S 732 mmHg 80%
    15:00 +21°C° 1.2 mm 4 m/S 733 mmHg 82%
    16:00 +20°C° 1.2 mm 4 m/S 733 mmHg 84%
    17:00 +20°C° 1.2 mm 5 m/S 733 mmHg 86%
    18:00 +17°C° 0 mm 5 m/S 734 mmHg 87%
    19:00 +16°C° 0 mm 5 m/S 734 mmHg 88%
    20:00 +14°C° 0 mm 5 m/S 735 mmHg 89%
    21:00 +13°C° 0 mm 5 m/S 735 mmHg 89%
    22:00 +13°C° 0 mm 5 m/S 736 mmHg 89%
    23:00 +12°C° 0 mm 4 m/S 737 mmHg 89%

    30 Mai, Donnerstag

    Zeit Temperatur Niederschläge Wind Luftdruck Luftfeuchtigkeit
    00:00 +11°C° 0 mm 4 m/S 737 mmHg 88%
    01:00 +11°C° 0 mm 4 m/S 737 mmHg 88%
    02:00 +10°C° 0 mm 3 m/S 738 mmHg 88%
    03:00 +10°C° 0 mm 3 m/S 738 mmHg 89%
    04:00 +10°C° 0 mm 3 m/S 739 mmHg 90%
    05:00 +10°C° 0 mm 3 m/S 739 mmHg 90%
    06:00 +10°C° 0 mm 3 m/S 739 mmHg 87%
    07:00 +11°C° 0 mm 3 m/S 740 mmHg 83%
    08:00 +12°C° 0 mm 3 m/S 740 mmHg 79%
    09:00 +13°C° 0 mm 3 m/S 740 mmHg 74%
    10:00 +14°C° 0 mm 3 m/S 740 mmHg 69%
    11:00 +16°C° 0 mm 3 m/S 740 mmHg 65%
    12:00 +17°C° 0 mm 3 m/S 740 mmHg 64%
    13:00 +18°C° 0 mm 3 m/S 740 mmHg 63%
    14:00 +18°C° 0 mm 3 m/S 740 mmHg 62%
    15:00 +18°C° 0 mm 2 m/S 739 mmHg 64%
    16:00 +18°C° 0 mm 2 m/S 739 mmHg 65%
    17:00 +18°C° 0 mm 2 m/S 739 mmHg 67%
    18:00 +18°C° 0 mm 1 m/S 739 mmHg 71%
    19:00 +16°C° 0 mm 1 m/S 738 mmHg 75%
    20:00 +16°C° 0 mm 1 m/S 738 mmHg 78%
    21:00 +15°C° 0 mm 1 m/S 738 mmHg 79%
    22:00 +15°C° 0 mm 1 m/S 738 mmHg 80%
    23:00 +14°C° 0 mm 1 m/S 738 mmHg 80%
    Mehr zeigen